Location: Cella
(44.7333°N, 10.5667°E)
Time: 23:16:41
(UTC+00:00)

COSMOS 1867 COOLANT - Pass Details

Date: 25 September 2021
Orbit: 770 x 802 km, 65.0° (Epoch: 21 October)

Event Time Altitude Azimuth Distance (km) Brightness Sun altitude
Rises 19:36:06 0° 329° (NNW) 3,321 ? -26.0°
Reaches altitude 10° 19:38:45 10° 338° (NNW) 2,387 ? -26.5°
Enters shadow 19:43:13 35° 30° (NNE) 1,284 ? -27.2°
